Hourly Data Report for October 05, 2004

TORONTO CITY
ONTARIO

43°40'00.000" N
79°24'00.000" W
112.50 m
6158355
71508
XTO

Download Data

Hourly Data (October 2004)
Hourly Data Report for October 5, 2004
TIME
LST
Temp Definition
°C
Dew Point Definition
°C
Rel Hum Definition
%
Precip. Amount Definition
mm

Wind Dir Definition
10's deg

Wind Spd Definition
km/h
Visibility Definition
km
Stn Press Definition
kPa
Hmdx Definition


Wind Chill Definition


Weather Definition


00:00 5.5 1.7 76   LegendMM LegendMM LegendMM 101.11     LegendNANA
01:00 5.6 1.2 73   LegendMM LegendMM LegendMM 101.14     LegendNANA
02:00 5.0 1.1 76   LegendMM LegendMM LegendMM 101.17     LegendNANA
03:00 5.6 0.7 71   LegendMM LegendMM LegendMM 101.20     LegendNANA
04:00 4.9 0.9 75   LegendMM LegendMM LegendMM 101.21     LegendNANA
05:00 4.7 1.2 78   LegendMM LegendMM LegendMM 101.29     LegendNANA
06:00 4.7 0.9 76   LegendMM LegendMM LegendMM 101.39     LegendNANA
07:00 4.6 1.0 77   LegendMM LegendMM LegendMM 101.45     LegendNANA
08:00 6.8 1.8 70   LegendMM LegendMM LegendMM 101.48     LegendNANA
09:00 8.6 0.2 55   LegendMM LegendMM LegendMM 101.51     LegendNANA
10:00 10.3 -0.3 48   LegendMM LegendMM LegendMM 101.50     LegendNANA
11:00 10.7 -1.2 44   LegendMM LegendMM LegendMM 101.48     LegendNANA
12:00 10.9 -0.1 47   LegendMM LegendMM LegendMM 101.45     LegendNANA
13:00 12.6 -1.3 38   LegendMM LegendMM LegendMM 101.37     LegendNANA
14:00 13.8 0.7 41   LegendMM LegendMM LegendMM 101.32     LegendNANA
15:00 13.2 0.4 41   LegendMM LegendMM LegendMM 101.24     LegendNANA
16:00 13.4 -1.4 36   LegendMM LegendMM LegendMM 101.21     LegendNANA
17:00 13.1 -0.8 38   LegendMM LegendMM LegendMM 101.18     LegendNANA
18:00 12.4 -0.1 42   LegendMM LegendMM LegendMM 101.19     LegendNANA
19:00 10.9 1.2 51   LegendMM LegendMM LegendMM 101.17     LegendNANA
20:00 10.7 1.1 51   LegendMM LegendMM LegendMM 101.15     LegendNANA
21:00 9.8 0.5 52   LegendMM LegendMM LegendMM 101.15     LegendNANA
22:00 9.7 1.3 56   LegendMM LegendMM LegendMM 101.17     LegendNANA
23:00 8.7 1.7 61   LegendMM LegendMM LegendMM 101.17     LegendNANA

Notes on Data Quality.

Legend

  • E = Estimated
  • M = Missing
  • NA = Not Available*
  • [empty] = Indicates an unobserved value
Date modified: